This demonstration page uses our WeatherBlox Daily Observations layout. Learn more.

39.92423, -83.80882

Hourly Observations for June 5, 2017

Temp ( °F °C ) Dew Point ( °F °C ) Humidity (%) Winds ( mph kmh ) Pressure ( in mb ) Visibility ( mi km ) Precip ( " mm )
12:58 am 00:58 Cloudy 69 20.5 69 20.5 100 100 Calm 29.79 1009 10 16.0934 0 0
1:28 am 01:28 Mostly Cloudy with Mist and Fog 70 21 66 19 88 88 SSE 5 7 29.78 1008 6 9.65604 0 0
1:58 am 01:58 Mostly Cloudy 71 21.5 65 18.5 83 83 Calm 29.78 1008 7 11.26538 0 0
2:24 am 02:24 Mostly Cloudy 70 21 66 19 88 88 Calm 29.77 1008 7 11.26538 0 0
2:34 am 02:34 Mostly Cloudy 70 21 66 19 88 88 Calm 29.77 1008 10 16.0934 0 0
2:58 am 02:58 Mostly Cloudy 68 20.1 68 19.9 99 99 Calm 29.76 1008 10 16.0934 0 0
3:58 am 03:58 Mostly Clear 68 19.9 67 19.2 96 96 SSE 3 6 29.75 1007 10 16.0934 0 0
4:58 am 04:58 Cloudy 69 20.5 64 17.7 84 84 Calm 29.75 1007 10 16.0934 0 0
5:58 am 05:58 Cloudy 69 20.3 64 17.9 86 86 Calm 29.76 1008 10 16.0934 0 0
6:14 am 06:14 Cloudy with Light Rain 68 20 66 19 94 94 Calm 29.76 1008 10 16.0934 0 0
6:56 am 06:56 Cloudy 70 21 64 18 83 83 Calm 29.77 1008 10 16.0934 0 0
6:58 am 06:58 Cloudy 69 20.6 65 18.2 86 86 Calm 29.77 1008 10 16.0934 0 0.0254
7:19 am 07:19 Cloudy with Light Rain 70 21 66 19 88 88 Calm 29.77 1008 7 11.26538 0 0
7:47 am 07:47 Mostly Cloudy 68 20 66 19 94 94 S 3 6 29.76 1008 10 16.0934 0 0
7:58 am 07:58 Mostly Cloudy 69 20.6 67 19.4 93 93 SSW 3 6 29.77 1008 10 16.0934 0 0.0254
9:58 am 09:58 Mostly Cloudy 74 23.4 67 19.3 78 78 SW 8 13 29.77 1008 10 16.0934 0 0
10:58 am 10:58 Mostly Cloudy 76 24.6 68 19.8 75 75 WSW 7 11 29.75 1008 10 16.0934 0 0
11:58 am 11:58 Mostly Cloudy 79 25.9 69 20.5 72 72 W 6 9 29.75 1007 10 16.0934 0 0
12:18 pm 12:18 Mostly Cloudy 79 26 68 20 70 70 WNW 7 11 29.75 1007 10 16.0934 0 0
12:48 pm 12:48 Mostly Cloudy 81 27 70 21 70 70 NW 7 11 29.74 1007 10 16.0934 0 0
12:58 pm 12:58 Partly Cloudy 80 26.7 69 20.6 69 69 W 6 9 29.74 1007 10 16.0934 0 0
1:58 pm 13:58 Partly Cloudy 82 28 65 18.3 56 56 NW 10 17 29.73 1007 10 16.0934 0 0
2:20 pm 14:20 Partly Cloudy with Nearby Thunderstorms 82 28 61 16 48 48 N 10 17 29.68 1005 10 16.0934 0 0
2:58 pm 14:58 Partly Cloudy with Nearby Thunderstorms 83 28.3 57 14 42 42 N 8 13 29.7 1006 10 16.0934 0 0
3:42 pm 15:42 Sunny 82 28 54 12 37 37 VRB 6 9 29.65 1004 10 16.0934 0 0
3:58 pm 15:58 Partly Cloudy 82 27.8 55 12.7 39 39 NNW 8 13 29.7 1006 10 16.0934 0 0
4:58 pm 16:58 Mostly Sunny 84 29.1 54 12.2 35 35 NNE 10 17 29.7 1006 10 16.0934 0 0
5:58 pm 17:58 Mostly Cloudy with Nearby Thunderstorms 79 26.1 66 18.9 65 65 NNE 17 28 29.71 1006 10 16.0934 0 0
6:14 pm 18:14 Mostly Cloudy with Light Thunderstorms 77 25 66 19 69 69 N 15 24 29.68 1005 10 16.0934 0 0
6:33 pm 18:33 Partly Cloudy with Nearby Thunderstorms 77 25 64 18 65 65 N 16 26 29.65 1004 10 16.0934 0 0
6:58 pm 18:58 Mostly Sunny 78 25.5 62 16.7 58 58 N 14 22 29.72 1007 10 16.0934 0 0.0254
7:58 pm 19:58 Mostly Cloudy 76 24.5 60 15.3 57 57 NNE 9 15 29.68 1005 10 16.0934 0 0
8:58 pm 20:58 Cloudy 72 22.4 60 15.3 64 64 NE 10 17 29.77 1008 10 16.0934 0 0
9:58 pm 21:58 Mostly Clear 69 20.5 59 15.1 71 71 NNE 10 17 29.81 1010 10 16.0934 0 0
10:58 pm 22:58 Mostly Cloudy 66 19.1 58 14.2 73 73 NE 13 20 29.86 1011 10 16.0934 0 0
11:58 pm 23:58 Clear 62 16.5 56 13.1 80 80 NE 8 13 29.86 1011 10 16.0934 0 0

Powered by AerisWeather